IGO437 VABB-VOCI

Flight info

Callsign IGO437
Flight time N/A
Altitude 37000
Route VEVAK2AXMABTA/27 MABTA W15 CIA
Aircraft A320/M-SDE3FGHIRWY/LB1

Departure

Time 2026-05-04 11:31
Airport Chhatrapati Shivaji Maharaj International Airport (VABB)

Arrival

Time N/A
Airport Cochin International Airport (VOCI)
Time Latitude Longitude Altitude Speed Heading
2026-05-04 11:05 19.09534 72.87742 49 ft 0 kts 281°
2026-05-04 11:19 19.09533 72.87753 49 ft 2 kts 280°
2026-05-04 11:19 19.09530 72.87765 44 ft 2 kts 280°
2026-05-04 11:19 19.09528 72.87777 45 ft 2 kts 280°
2026-05-04 11:20 19.09526 72.87790 47 ft 2 kts 280°
2026-05-04 11:20 19.09524 72.87802 47 ft 2 kts 280°
2026-05-04 11:20 19.09522 72.87814 48 ft 2 kts 280°
2026-05-04 11:20 19.09521 72.87826 49 ft 2 kts 258°
2026-05-04 11:22 19.09500 72.87822 49 ft 0 kts 205°
2026-05-04 11:25 19.09494 72.87819 49 ft 4 kts 205°
2026-05-04 11:26 19.09384 72.87748 49 ft 12 kts 202°
2026-05-04 11:27 19.08997 72.87807 48 ft 0 kts 178°
2026-05-04 11:29 19.08972 72.87807 47 ft 9 kts 179°
2026-05-04 11:29 19.08892 72.87794 48 ft 13 kts 230°
2026-05-04 11:29 19.08885 72.87760 48 ft 0 kts 268°
2026-05-04 11:31 19.08774 72.80255 2768 ft 213 kts 268°
2026-05-04 11:33 19.01406 72.73045 6952 ft 293 kts 179°
2026-05-04 11:33 18.99367 72.73165 7650 ft 295 kts 179°
2026-05-04 11:33 18.97303 72.73285 8371 ft 298 kts 178°
2026-05-04 11:34 18.95225 72.73400 9077 ft 300 kts 178°
2026-05-04 11:34 18.93129 72.73511 9776 ft 303 kts 177°
2026-05-04 11:34 18.90995 72.73619 10249 ft 314 kts 177°
2026-05-04 11:34 18.88757 72.73729 10536 ft 330 kts 178°
2026-05-04 11:35 18.86406 72.73845 10794 ft 346 kts 178°
2026-05-04 11:35 18.83965 72.73965 11230 ft 354 kts 178°
2026-05-04 11:35 18.81497 72.74087 11816 ft 356 kts 178°
2026-05-04 11:35 18.79009 72.74220 12406 ft 359 kts 176°
2026-05-04 11:36 18.76540 72.74694 12981 ft 364 kts 165°
2026-05-04 11:36 18.74126 72.75534 13548 ft 367 kts 163°
2026-05-04 11:36 18.71696 72.76389 14054 ft 369 kts 163°
2026-05-04 11:36 18.69244 72.77245 14559 ft 372 kts 163°
2026-05-04 11:37 18.66773 72.78101 15065 ft 375 kts 163°
2026-05-04 11:37 18.64285 72.78961 15571 ft 377 kts 163°
2026-05-04 11:37 18.61813 72.79815 16075 ft 380 kts 163°
2026-05-04 11:37 18.59259 72.80699 16586 ft 383 kts 163°
2026-05-04 11:38 18.56749 72.81568 17082 ft 386 kts 163°
2026-05-04 11:38 18.54193 72.82452 17573 ft 389 kts 163°